Location: Broncourt
(47.7618°N, 5.6601°E)
Time: 14:43:25
(UTC+00:00)

Daily predictions for brighter satellites

Satellite Brightness Start Highest point End
(mag) Time Altitude Azimuth Time Altitude Azimuth Time Altitude Azimuth
H-2A R/B 2.1 18:43:35 10° SSE 18:48:44 63° ENE 18:53:47 10° N
SJ-11-01 4.3 18:46:10 10° SSE 18:50:53 87° ENE 18:55:39 10° NNW
NOSS 3-4 (A) 4.3 18:44:55 10° NW 18:51:31 48° NE 18:58:46 10° ESE
NOSS 3-4 (C) 4.3 18:45:02 10° NW 18:51:37 48° NE 18:58:52 10° ESE
Cosmos 1656 Rocket 4.1 18:48:15 10° NNW 18:53:45 48° NE 18:59:09 10° SE
ADEOS Rocket 3.7 18:47:32 10° N 18:54:00 62° WNW 18:59:48 10° SSW
SL-16 R/B 3.4 18:51:13 10° SW 18:56:40 47° NW 19:02:09 10° NNE
CZ-2C R/B 3.7 18:53:48 10° NE 18:57:43 21° E 19:01:37 10° SE
STARLINK-1228 4.2 18:55:33 10° WNW 18:58:10 29° N 19:00:48 10° ENE
NOSS 3-3 (A) 3.9 18:55:28 10° SSW 19:01:17 70° SE 19:07:51 10° NE
NOSS 3-3 (C) 3.9 18:55:35 10° SSW 19:01:23 69° SE 19:07:57 10° NE
Cosmos 2251 Rocket 3.5 18:56:54 10° SSW 19:02:14 78° ESE 19:07:39 10° NNE
Cosmos 1726 2.4 18:58:50 10° SSE 19:02:24 46° E 19:06:01 10° NNE
ARGOS 3.1 18:59:09 10° SSE 19:04:31 73° ENE 19:09:54 10° N
Cosmos 2184 Rocket 4.1 18:59:49 10° N 19:06:05 62° ENE 19:12:15 10° SSE
MONITOR-E 3.6 19:03:39 10° SSE 19:06:16 73° ENE 19:08:55 10° N
ISS -1.9 19:03:58 10° W 19:06:46 25° SW 19:09:34 10° SSE
SJ-6B 2.9 19:03:55 10° SSE 19:07:58 64° ENE 19:12:06 10° N
STARLINK-1233 4.4 19:05:25 10° WNW 19:08:16 31° N 19:11:08 10° ENE
STARLINK-1212 4.3 19:05:53 10° WNW 19:08:44 31° N 19:11:35 10° ENE
STARLINK-1105 4.3 19:06:19 10° WNW 19:09:11 31° N 19:12:03 10° ENE
STARLINK-1206 4.3 19:06:49 10° WNW 19:09:39 31° N 19:12:28 10° ENE
STARLINK-1247 4.3 19:07:16 10° WNW 19:10:07 31° N 19:12:54 10° ENE
STARLINK-1227 4.3 19:07:40 10° WNW 19:10:32 31° N 19:13:20 10° ENE
BREEZE M DEB (TANK) 4.3 19:08:27 10° SSE 19:10:37 15° ESE 19:14:04 10° E
STARLINK-1218 4.3 19:08:11 10° WNW 19:11:02 31° N 19:13:47 11° ENE
Meteor 2-10 4.2 19:05:54 10° S 19:11:16 64° E 19:16:51 10° NNE
STARLINK-1226 4.3 19:08:37 10° WNW 19:11:28 31° N 19:14:12 11° ENE
STARLINK-1254 4.3 19:09:02 10° WNW 19:11:54 31° N 19:14:38 11° ENE
STARLINK-1215 4.3 19:09:32 10° WNW 19:12:23 31° N 19:15:04 11° ENE
STARLINK-1231 4.3 19:09:59 10° WNW 19:12:50 31° N 19:15:30 11° ENE
STARLINK-67 3.7 19:10:34 10° NW 19:12:57 32° NNE 19:14:43 15° ENE
USA 186 1.9 19:09:38 10° S 19:13:00 82° W 19:16:13 10° NNW
STARLINK-1232 4.3 19:10:53 10° WNW 19:13:44 31° N 19:16:22 11° ENE
STARLINK-1217 4.3 19:11:20 10° WNW 19:14:11 31° N 19:16:48 11° ENE
STARLINK-1208 4.3 19:11:45 10° WNW 19:14:37 31° N 19:17:15 12° ENE
STARLINK-1229 4.3 19:12:13 10° WNW 19:15:05 31° N 19:17:39 12° ENE
STARLINK-1271 4.3 19:12:41 10° WNW 19:15:33 31° N 19:18:07 12° ENE
STARLINK-1234 4.1 19:12:50 10° WNW 19:15:39 33° N 19:17:59 13° ENE
STARLINK-1270 4.3 19:13:09 10° WNW 19:16:01 31° N 19:18:33 12° ENE
STARLINK-1154 4.3 19:13:35 10° WNW 19:16:26 31° N 19:18:57 12° ENE
STARLINK-1197 4.3 19:14:30 10° WNW 19:17:21 31° N 19:19:50 12° ENE
STARLINK-1189 4.3 19:14:57 10° WNW 19:17:48 31° N 19:20:16 13° ENE
STARLINK-1198 4.3 19:15:24 10° WNW 19:18:15 32° N 19:20:42 13° ENE
STARLINK-1209 4.0 19:15:44 10° NW 19:18:29 33° NNE 19:20:38 14° ENE
STARLINK-1188 4.3 19:15:51 10° WNW 19:18:43 32° N 19:21:08 13° ENE
IRIDIUM 104 4.3 19:13:53 10° N 19:19:08 88° E 19:24:22 10° S
Cosmos 1603 3.7 19:13:32 10° SSW 19:19:10 85° ESE 19:24:49 10° NNE
STARLINK-1235 4.1 19:16:31 10° WNW 19:19:27 34° N 19:21:46 14° ENE
STARLINK-1187 4.2 19:16:55 10° WNW 19:19:50 33° N 19:22:12 14° ENE
FREGAT/IRIS 3.0 19:17:13 10° S 19:19:53 56° W 19:22:35 10° NNW
STARLINK-1199 4.3 19:17:47 10° WNW 19:20:41 32° N 19:23:03 13° ENE
Cosmos 2058 Rocket 4.0 19:16:53 10° SSE 19:20:46 29° E 19:24:39 10° NNE
STARLINK-1191 4.3 19:18:15 10° WNW 19:21:08 32° N 19:23:29 14° ENE
STARLINK-1210 4.2 19:18:42 10° WNW 19:21:36 32° N 19:23:55 14° ENE
Ariane Rocket 3.6 19:16:45 10° S 19:21:45 59° WSW 19:26:46 10° NNW
STARLINK-1221 4.2 19:19:09 10° WNW 19:22:03 32° N 19:24:21 14° ENE
STARLINK-1219 4.2 19:19:35 10° WNW 19:22:30 32° N 19:24:47 14° ENE
MOS 1 Rocket 4.1 19:17:57 10° NNE 19:22:57 38° E 19:27:58 10° SSE
STARLINK-1222 4.2 19:20:04 10° WNW 19:22:57 32° N 19:25:13 14° ENE
STARLINK-1211 4.2 19:20:31 10° WNW 19:23:24 32° N 19:25:39 14° ENE
STARLINK-1214 4.2 19:20:58 10° WNW 19:23:52 33° N 19:26:05 15° ENE
ATLAS 2AS CENTAUR R/B 3.0 19:16:28 10° NW 19:24:11 70° NE 19:29:59 16° SE
STARLINK-1245 4.2 19:21:26 10° WNW 19:24:19 32° N 19:26:30 15° ENE
Resurs 01 Rocket 2.3 19:21:42 16° SE 19:24:43 37° ENE 19:28:47 10° N
STARLINK-1238 4.2 19:21:51 10° WNW 19:24:45 33° N 19:26:57 15° ENE
USA 234 3.9 19:19:16 10° ENE 19:24:55 30° SE 19:30:33 10° S
STARLINK-1205 4.2 19:22:48 10° WNW 19:25:41 33° N 19:27:49 15° ENE
STARLINK-1204 4.2 19:23:15 10° WNW 19:26:08 33° N 19:28:14 15° ENE
IRIDIUM 114 4.5 19:23:03 10° N 19:28:17 78° W 19:33:29 10° S
Cosmos 2154 Rocket 4.1 19:22:01 10° N 19:28:19 60° ENE 19:34:34 10° SSE
Meteor 1-16 Rocket 4.1 19:23:17 10° S 19:28:39 75° E 19:34:13 10° NNE
SeaSat 1 4.1 19:26:07 10° NNE 19:30:39 37° NW 19:35:10 10° WSW
Nadezhda 1 Rocket 4.1 19:25:21 10° S 19:31:36 59° E 19:37:50 10° NNE
Cosmos 1140 Rocket 4.2 19:27:13 10° SSE 19:31:42 30° E 19:36:10 10° NE
SL-4 R/B 1.8 19:28:33 10° SW 19:31:49 45° SSE 19:33:43 21° E
Cosmos 1726 Rocket 3.6 19:29:41 10° S 19:34:00 58° E 19:38:23 10° NNE
STARLINK-1201 4.2 19:31:25 10° WNW 19:34:28 35° N 19:36:24 18° ENE
Cosmos 1340 Rocket 3.4 19:32:48 15° SSE 19:35:46 36° E 19:39:29 10° NNE
ATLAS 5 CENTAUR R/B 2.3 19:33:49 10° S 19:37:20 27° ESE 19:41:09 10° ENE
Cosmos 1825 Rocket 3.8 19:35:20 10° NNW 19:39:44 72° W 19:44:04 10° S
Cosmos 1328 3.7 19:35:46 10° N 19:39:48 84° E 19:43:15 14° S
Cosmos 1703 3.3 19:41:13 10° N 19:45:12 81° W 19:48:40 13° S
Meteor 2-17 Rocket 4.4 19:39:17 10° N 19:45:29 78° E 19:51:27 11° SSE
Cosmos 614 Rocket 3.9 19:43:23 10° S 19:48:33 67° ESE 19:53:44 10° NNE
Cosmos 1943 Rocket 4.1 19:45:01 10° NW 19:49:35 27° WSW 19:54:10 10° SSW
Cosmos 1300 3.7 19:50:48 28° E 19:50:48 28° E 19:53:54 10° NNE
SPOT 3 Rocket 3.7 19:46:00 10° S 19:51:12 76° WSW 19:56:26 10° NNW
Abrixas rocket 1.9 19:48:39 10° W 19:51:38 77° N 19:52:19 48° E
Cosmos 2369 Rocket 3.7 19:46:33 10° NW 19:51:38 34° WSW 19:56:40 10° S
COSMOS 2455 3.1 19:47:32 10° NNW 19:53:29 54° NE 19:56:39 27° ESE
SL-24 R/B 3.9 19:49:27 10° N 19:53:43 82° WNW 19:57:30 10° SSW
CZ-2C R/B 3.8 19:50:49 10° NNE 19:55:34 81° WNW 20:00:12 10° SSW
Cosmos 921 Rocket 3.1 19:51:44 10° N 19:55:50 52° ENE 19:57:11 36° ESE
Cosmos 1953 4.4 19:54:43 10° SW 19:58:14 29° WNW 20:01:46 10° N
Cosmos 407 Rocket 3.3 19:54:47 10° SSW 19:59:54 70° ESE 20:05:01 10° NNE
Cosmos 1953 Rocket 3.9 19:55:39 10° NNW 20:00:06 65° W 20:04:01 13° S
Cosmos 2228 3.4 19:56:07 10° SSW 20:00:22 64° WNW 20:04:42 10° N
Cosmos 1606 Rocket 4.2 19:58:39 10° SSW 20:03:00 58° WNW 20:07:26 10° N
Cosmos 1908 3.5 19:59:43 10° SSW 20:03:33 66° WNW 20:07:26 10° N
Cosmos 1818 3.9 20:02:35 10° SW 20:08:00 69° NW 20:13:29 10° NE
ERS-1 Rocket 4.0 20:07:40 27° E 20:08:40 29° ENE 20:12:59 10° N
ATLAS CENTAUR R/B 3.9 20:08:43 10° N 20:09:28 10° NNE 20:10:11 10° NNE
ERBS 4.0 20:06:48 10° NW 20:09:38 24° NNE 20:10:29 22° NE
STARLINK-1200 4.5 20:08:11 10° WNW 20:12:11 44° N 20:13:47 29° ENE
Landsat 7 4.3 20:11:37 37° E 20:12:39 42° ENE 20:17:08 10° N
SPOT 1/Viking Rocket 4.1 20:14:30 36° ESE 20:15:49 42° ENE 20:20:45 10° N
STARLINK-1192 4.4 20:13:10 10° WNW 20:17:10 45° NNE 20:18:33 32° ENE
Cosmos 1943 4.2 20:11:59 10° SW 20:17:26 47° NW 20:22:58 10° NNE
MetOp-B 4.1 20:15:07 34° SSE 20:17:30 74° ENE 20:22:52 10° N
Cosmos 1461 3.0 20:14:01 10° NW 20:18:34 85° SW 20:19:51 47° SSE
STARLINK-1244 4.4 20:18:10 10° WNW 20:22:11 46° NNE 20:23:20 36° ENE
Cosmos 1954 Rocket 4.0 20:21:02 34° SSE 20:23:03 55° ESE 20:28:10 10° NNE
SAR-Lupe-2 3.5 20:23:15 10° NNE 20:26:38 75° NE 20:26:38 75° NE
STARLINK-1138 4.3 20:23:08 10° WNW 20:27:10 47° NNE 20:28:06 39° NE
H-2A R/B 4.5 20:24:52 10° SW 20:28:34 19° W 20:32:14 10° NW
Cosmos 1023 Rocket 4.4 20:26:34 10° SSW 20:31:46 84° WNW 20:36:56 10° NNE
STARLINK-1143 4.2 20:28:06 10° WNW 20:32:08 49° NNE 20:32:52 43° NE
CZ-4C R/B 4.2 20:26:39 10° NW 20:32:19 28° NNE 20:37:07 16° ENE
STARLINK-1228 4.1 20:30:31 10° WNW 20:32:28 38° WNW 20:32:28 38° WNW
Cosmos 1697 Rocket 4.1 20:29:29 10° N 20:34:02 24° NE 20:35:27 22° ENE
Cosmos 1076 Rocket 3.7 20:31:07 10° N 20:35:03 52° ENE 20:35:03 52° ENE
SPOT 5 3.4 20:36:47 36° NE 20:36:47 36° NE 20:40:24 10° N
STARLINK-1241 4.1 20:33:07 10° WNW 20:37:11 51° NNE 20:37:41 47° NE
CZ-2C R/B 3.1 20:33:19 10° N 20:38:23 57° WNW 20:43:28 10° SSW
Iridium 2 4.1 20:41:59 54° NNE 20:41:59 54° NNE 20:45:03 10° N
STARLINK-1239 4.1 20:38:05 10° WNW 20:42:10 52° NNE 20:42:27 51° NE
NOSS 3-4 (A) 4.3 20:35:51 10° NW 20:42:39 53° WSW 20:46:22 29° S
NOSS 3-4 (C) 4.3 20:35:57 10° NW 20:42:46 54° WSW 20:46:27 30° S
Cosmos 2341 Rocket 4.2 20:36:46 10° NNW 20:43:07 71° W 20:46:40 28° S
STARLINK-1233 4.4 20:41:16 10° WNW 20:43:20 37° NW 20:43:20 37° NW
STARLINK-1212 4.4 20:41:43 10° WNW 20:43:45 36° NW 20:43:45 36° NW
Cosmos 2058 3.2 20:40:47 10° N 20:44:18 56° NE 20:44:18 56° NE
STARLINK-1105 4.4 20:42:10 10° WNW 20:44:12 36° NW 20:44:12 36° NW
STARLINK-1240 4.0 20:43:05 10° WNW 20:47:11 55° NNE 20:47:15 54° NNE
Cosmos 1763 Rocket 3.8 20:44:20 10° NNW 20:49:24 47° ENE 20:49:35 47° ENE
STARLINK-1216 4.0 20:48:05 10° WNW 20:52:03 57° N 20:52:03 57° N
Terra 2.5 20:55:02 41° NE 20:55:02 41° NE 20:59:04 10° N
USA 32 4.4 20:50:53 10° N 20:55:38 48° ENE 20:55:38 48° ENE
RESURS DK-1 3.9 20:53:31 10° N 20:56:27 26° NNE 20:56:27 26° NNE
STARLINK-1237 4.1 20:53:02 10° WNW 20:56:48 57° N 20:56:48 57° N
Cosmos 1174 4.4 20:54:20 10° NNW 20:57:56 58° NNE 20:57:56 58° NNE
Cosmos 2218 Rocket 3.9 20:54:26 10° N 21:00:40 82° W 21:02:26 50° S
Cosmos 192 4.2 20:56:09 10° NNW 21:01:06 82° ENE 21:01:06 82° ENE
Resurs 01 Rocket 3.5 20:59:16 18° SW 21:01:18 26° W 21:05:00 10° NW
STARLINK-1202 4.2 20:58:00 10° WNW 21:01:35 55° NNW 21:01:35 55° NNW
Cosmos 1980 Rocket 3.7 20:57:55 10° N 21:02:16 22° NE 21:03:10 22° ENE
Cosmos 1892 3.7 20:59:10 10° N 21:01:53 43° N 21:01:53 43° N
Cosmos 540 Rocket 4.5 20:59:56 10° N 21:04:25 34° NE 21:04:25 34° NE
STARLINK-1203 4.3 21:02:24 10° WNW 21:05:52 55° NNW 21:05:52 55° NNW
USA 234 3.1 21:01:52 10° NE 21:08:27 90° E 21:15:01 10° WSW
CARTOSAT-1 4.0 21:10:07 57° N 21:10:07 57° N 21:13:38 10° NNW
Cosmos 1656 3.8 21:04:48 10° NNW 21:10:28 61° ENE 21:10:37 60° ENE
Iridium 4 Rocket 3.5 21:07:05 10° N 21:10:42 57° NW 21:10:42 57° NW
SL-4 R/B 3.8 21:08:00 10° W 21:09:22 22° W 21:09:22 22° W
STARLINK-1246 4.5 21:07:58 10° WNW 21:11:09 49° NW 21:11:09 49° NW
Spot 2 Rocket 4.4 21:11:43 38° SW 21:12:54 44° W 21:17:48 10° NNW
ATLAS 2AS CENTAUR R/B 4.0 21:08:11 10° NW 21:14:37 32° WSW 21:17:27 24° SSW
Cosmos 2181 Rocket 4.3 21:12:14 29° SSW 21:15:32 63° WNW 21:21:42 10° N
Cosmos 1825 4.2 21:14:55 10° N 21:16:32 23° NNE 21:16:32 23° NNE
ATLAS 5 CENTAUR R/B 2.6 21:17:35 10° WSW 21:21:41 44° NW 21:26:20 10° NNE
Cosmos 841 Rocket 4.0 21:19:40 10° NNW 21:24:13 50° NE 21:24:13 50° NE
Cosmos 2082 Rocket 4.5 21:33:29 12° NE 21:33:29 12° NE 21:34:00 10° NE
Cosmos 1570 Rocket 4.3 21:25:07 10° NNW 21:29:51 63° NNE 21:29:51 63° NNE
Mayak 1.2 21:29:45 10° NNE 21:30:34 15° NNE 21:30:34 15° NNE
Cosmos 468 Rocket 4.3 21:29:12 10° NNW 21:33:48 60° WNW 21:33:48 60° WNW
ASTEX 1 4.4 21:39:12 40° NNE 21:39:12 40° NNE 21:42:34 10° N
COSMOS 2455 4.0 21:33:54 10° NW 21:39:09 32° WSW 21:39:49 31° WSW
Nadezhda 3 Rocket 4.0 21:43:48 73° NE 21:43:48 73° NE 21:49:38 10° NNE
COSMOS 2406 4.0 21:45:30 42° NE 21:45:30 42° NE 21:49:16 10° NNE
Cosmos 1833 Rocket 4.3 21:47:50 24° NE 21:47:50 24° NE 21:50:05 10° NE
ERS-1 Rocket 3.9 21:47:39 41° W 21:47:39 41° W 21:52:04 10° NNW
ATLAS CENTAUR R/B 3.6 21:45:55 10° NNW 21:47:36 21° N 21:47:36 21° N
Cosmos 2369 4.2 22:01:16 10° NNW 22:05:45 58° NNW 22:05:45 58° NNW
Meteor 2-10 Rocket 4.4 22:12:36 47° NW 22:12:36 47° NW 22:16:56 10° N
Cosmos 1821 Rocket 4.4 22:08:32 10° NNW 22:14:33 59° W 22:14:33 59° W
Cosmos 1697 Rocket 3.4 22:12:56 10° NNW 22:17:11 51° NW 22:17:11 51° NW
CZ-4C R/B 2.9 22:15:02 10° NW 22:22:04 70° NE 22:22:18 70° ENE
Cosmos 1934 Rocket 4.2 22:17:02 10° N 22:22:23 65° NNW 22:22:23 65° NNW
Meteor 2-3 Rocket 4.4 22:22:23 10° NNW 22:26:44 51° NNW 22:26:44 51° NNW
Terra 3.9 22:33:54 22° WNW 22:33:54 22° WNW 22:36:26 10° NW
SL-16 R/B 3.6 22:27:57 10° NNW 22:32:21 31° NE 22:32:21 31° NE
Cosmos 1605 Rocket 4.4 22:27:44 10° N 22:32:34 58° N 22:32:34 58° N
Cosmos 2360 Rocket 4.2 22:34:58 10° N 22:38:57 19° NE 22:39:34 19° NE
Cosmos 2322 Rocket 3.6 22:37:52 10° NNW 22:42:08 30° NE 22:42:08 30° NE
Cosmos 1980 Rocket 3.2 22:41:19 10° NNW 22:44:56 42° NW 22:44:56 42° NW
USA 234 4.1 22:44:58 10° NE 22:51:10 47° NNW 22:57:20 10° W
Mayak 1.5 23:05:53 10° NNW 23:07:09 16° NNW 23:07:09 16° NNW
Cosmos 2082 Rocket 3.4 23:15:18 38° N 23:15:18 38° N 23:18:53 10° NNE
Cosmos 2344 4.3 23:07:35 10° NW 23:17:13 77° SW 23:18:38 70° S
Cosmos 1833 Rocket 4.1 23:29:28 33° NW 23:29:28 33° NW 23:33:55 10° NNE
SL-16 R/B 4.5 23:29:18 18° ENE 23:30:51 20° NE 23:35:08 10° N
Cosmos 2219 Rocket 4.3 23:34:45 10° N 23:38:49 20° NE 23:40:10 18° ENE
